This demonstration page uses our WeatherBlox Daily Observations layout. Learn more.

Left ArrowRight Arrow

39.51506, -84.39828

Hourly Observations for June 28, 2016

Temp ( °F °C ) Dew Point ( °F °C ) Humidity (%) Winds ( mph kmh ) Pressure ( in mb ) Visibility ( mi km ) Precip ( " mm )
12:15 am 00:15 Partly Cloudy 74 23.6 60 15.8 62 62 W 6 9 30.00 1016 10 16 N/A
12:35 am 00:35 Clear 74 23.6 60 15.6 61 61 W 8 13 30.00 1016 10 16 N/A
12:55 am 00:55 Clear 74 23.6 60 15.7 61 61 W 6 9 30.00 1016 10 16 N/A
1:15 am 01:15 Clear 74 23.6 61 15.9 62 62 W 6 9 30.00 1016 10 16 N/A
1:35 am 01:35 Clear 74 23.6 61 16.1 63 63 W 6 9 30.00 1016 10 16 N/A
1:55 am 01:55 Clear 74 23.6 60 15.5 61 61 WNW 7 11 29.97 1015 10 16 N/A
2:15 am 02:15 Clear 74 23.6 60 15.3 60 60 WNW 6 9 30.00 1016 10 16 N/A
2:35 am 02:35 Clear 74 23.6 60 15.7 61 61 WNW 3 6 30.00 1016 10 16 N/A
2:55 am 02:55 Clear 74 23.6 62 16.7 65 65 N N/A 30.00 1016 10 16 N/A
3:15 am 03:15 Clear 74 23.6 62 16.5 65 65 NW 3 6 30.00 1016 10 16 N/A
3:35 am 03:35 Clear 74 23.6 61 16 63 63 NNW 5 7 30.00 1016 10 16 N/A
3:55 am 03:55 Clear 74 23.6 63 17 67 67 N 5 7 30.00 1016 10 16 N/A
4:15 am 04:15 Clear 72 22.2 61 15.9 68 68 N 3 6 30.00 1016 10 16 N/A
4:35 am 04:35 Clear 70 21 59 15.1 69 69 N 5 7 30.00 1016 10 16 N/A
4:55 am 04:55 Clear 69 20.8 59 14.9 69 69 N 5 7 30.00 1016 10 16 N/A
5:15 am 05:15 Clear 69 20.8 58 14.7 68 68 N 5 7 30.00 1016 10 16 N/A
5:35 am 05:35 Clear 69 20.8 59 15.2 70 70 N 3 6 30.00 1016 10 16 N/A
5:55 am 05:55 Clear 69 20.8 60 15.6 72 72 N 3 6 30.00 1016 10 16 N/A
6:15 am 06:15 Sunny 69 20.8 60 15.5 72 72 NNE 6 9 30.03 1017 10 16 N/A
6:35 am 06:35 Sunny 69 20.8 60 15.6 72 72 N 3 6 30.03 1017 10 16 N/A
6:55 am 06:55 Sunny 69 20.8 60 15.5 72 72 N 3 6 30.03 1017 10 16 N/A
7:15 am 07:15 Sunny 69 20.8 59 15 70 70 N N/A 30.03 1017 10 16 N/A
7:35 am 07:35 Sunny 69 20.8 58 14.7 68 68 N 3 6 30.03 1017 10 16 N/A
7:55 am 07:55 Sunny 73 22.5 61 15.9 66 66 N N/A 30.03 1017 10 16 N/A
8:15 am 08:15 Sunny 74 23.6 61 15.9 62 62 N 6 9 30.03 1017 10 16 N/A
8:35 am 08:35 Sunny 74 23.6 60 15.3 60 60 N 5 7 30.03 1017 10 16 N/A
8:55 am 08:55 Sunny 74 23.6 58 14.5 57 57 N 5 7 30.03 1017 10 16 N/A
9:15 am 09:15 Sunny 75 24 58 14.7 56 56 N 3 6 30.03 1017 10 16 N/A
9:35 am 09:35 Sunny 77 25.1 58 14.3 51 51 N N/A 30.03 1017 10 16 N/A
9:55 am 09:55 Sunny 77 25.1 55 13 47 47 NW 6 9 30.03 1017 10 16 N/A
10:10 am 10:10 Sunny 78 25.7 56 13.3 46 46 N 7 11 30.03 1017 10 16 N/A
10:35 am 10:35 Sunny 80 26.5 56 13.1 44 44 NNW 5 7 30.03 1017 10 16 N/A
10:55 am 10:55 Sunny 80 26.5 53 11.9 40 40 NW 5 7 30.03 1017 10 16 N/A
11:15 am 11:15 Partly Cloudy 80 26.5 52 11.1 38 38 N N/A 30.03 1017 10 16 N/A
11:35 am 11:35 Partly Cloudy 80 26.5 50 9.8 35 35 NNW 8 13 30.03 1017 10 16 N/A
11:55 am 11:55 Partly Cloudy 81 27.1 50 10.1 34 34 NNW 8 13 30.03 1017 10 16 N/A
12:15 pm 12:15 Partly Cloudy 81 27 52 11 37 37 NW 9 15 30.03 1017 10 16 N/A
12:35 pm 12:35 Partly Cloudy 81 27.2 51 10.6 35 35 N 7 11 30.03 1017 10 16 N/A
12:55 pm 12:55 Partly Cloudy 81 27.3 51 10.6 35 35 WNW 10 17 30.03 1017 10 16 N/A
1:15 pm 13:15 Partly Cloudy 82 28 51 10.4 33 33 WNW 8 13 30.03 1017 10 16 N/A
1:35 pm 13:35 Partly Cloudy 82 27.6 52 11.3 36 36 WNW 10 17 30.03 1017 10 16 N/A
1:55 pm 13:55 Mostly Cloudy 82 27.6 51 10.4 34 34 W 8 13 30.03 1017 10 16 N/A
2:15 pm 14:15 Partly Cloudy 82 28 52 11.2 35 35 W 10 17 30.03 1017 10 16 N/A
2:35 pm 14:35 Partly Cloudy 81 27 51 10.6 36 36 W 6 9 30.03 1017 10 16 N/A
2:55 pm 14:55 Partly Cloudy 82 28 51 10.6 34 34 W 9 15 30.03 1017 10 16 N/A
3:15 pm 15:15 Partly Cloudy 82 28 52 11 35 35 WNW 8 13 30.03 1017 10 16 N/A
3:35 pm 15:35 Partly Cloudy 83 28.1 52 11 35 35 WNW 10 17 30.00 1016 10 16 N/A
3:55 pm 15:55 Mostly Cloudy 80 26.6 51 10.7 37 37 WNW 7 11 30.00 1016 10 16 N/A
4:15 pm 16:15 Mostly Cloudy 81 27.2 51 10.6 35 35 NW 9 15 30.00 1016 10 16 N/A
4:35 pm 16:35 Mostly Cloudy 81 27.4 52 11.2 36 36 WNW 7 11 30.00 1016 10 16 N/A
4:55 pm 16:55 Mostly Cloudy 82 27.7 51 10.7 35 35 NW 9 15 30.00 1016 10 16 N/A
5:15 pm 17:15 Mostly Cloudy 82 27.9 53 11.4 36 36 NNW 8 13 30.00 1016 10 16 N/A
5:35 pm 17:35 Mostly Cloudy 81 27 50 10.2 35 35 WNW 13 20 30.00 1016 10 16 N/A
5:55 pm 17:55 Mostly Cloudy 80 26.5 49 9.3 34 34 NW 12 19 30.00 1016 10 16 N/A
6:15 pm 18:15 Partly Cloudy 80 26.5 48 9 33 33 NW 8 13 30.00 1016 10 16 N/A
6:35 pm 18:35 Partly Cloudy 80 26.5 48 9 33 33 WNW 10 17 30.00 1016 10 16 N/A
6:55 pm 18:55 Partly Cloudy 79 26.3 51 10.7 38 38 N 14 22 30.00 1016 10 16 N/A
7:15 pm 19:15 Partly Cloudy 77 25.1 52 11.3 42 42 NW 7 11 30.00 1016 10 16 N/A
7:35 pm 19:35 Sunny 77 25.1 52 11.2 42 42 NNW 14 22 30.00 1016 10 16 N/A
7:55 pm 19:55 Sunny 74 23.6 51 10.6 44 44 NNW 10 17 30.03 1017 10 16 N/A
8:15 pm 20:15 Sunny 74 23.6 52 11.3 46 46 NNW 10 17 30.03 1017 10 16 N/A
8:35 pm 20:35 Sunny 74 23.6 53 11.9 48 48 NNW 10 17 30.03 1017 10 16 N/A
8:55 pm 20:55 Sunny 69 20.8 50 10.2 51 51 N 10 17 30.03 1017 10 16 N/A
9:15 pm 21:15 Clear 69 20.8 52 11.1 54 54 NNW 7 11 30.03 1017 10 16 N/A
9:35 pm 21:35 Clear 69 20.8 53 11.6 56 56 NNW 8 13 30.03 1017 10 16 N/A
9:55 pm 21:55 Clear 69 20.8 53 11.7 56 56 NNW 7 11 30.03 1017 10 16 N/A
10:15 pm 22:15 Clear 67 19.5 51 10.5 56 56 N 8 13 30.06 1018 10 16 N/A
10:35 pm 22:35 Clear 64 18 49 9.7 59 59 NNW 6 9 30.06 1018 10 16 N/A
10:55 pm 22:55 Clear 64 17.8 50 10.1 61 61 NNW 7 11 30.06 1018 10 16 N/A
11:15 pm 23:15 Clear 62 16.8 50 9.8 64 64 N N/A 30.06 1018 10 16 N/A
11:35 pm 23:35 Clear 61 16 50 10 68 68 NW 5 7 30.09 1019 10 16 N/A
11:55 pm 23:55 Clear 61 16 50 10.2 69 69 N N/A 30.09 1019 10 16 N/A

Powered by AerisWeather